Weather History for LFBY - September, 2013

Change the Weather History Date:

Monday, September 30, 2013

  Actual Average (LFBZ) Record (LFBZ)
Temperature  
Mean Temperature 68 °F -  
Max Temperature 77 °F 67 °F 86 °F (2011)
Min Temperature 59 °F 53 °F 51 °F (2007)
Cooling Degree Days 3    
Growing Degree Days 18 (Base 50)    
Moisture  
Dew Point 60 °F    
Average Humidity 80    
Maximum Humidity 94    
Minimum Humidity 57    
Precipitation  
Precipitation 0.00 in - - ()
Sea Level Pressure  
Sea Level Pressure 29.72 in    
Wind  
Wind Speed 3 mph ()    
Max Wind Speed 13 mph    
Max Gust Speed -    
Visibility 6.1 miles    
Events Rain    
Averages and records for this station are not official NWS values.
T = Trace of Precipitation, MM = Missing Value Source: Averaged Metar Reports

Daily Weather History Graph

Daily Weather History Graph

Search for Another Location

Airport or City:

Trip Planner

Search our weather history database for the weather conditions in past years. The results will help you decide how hot, cold, wet, or windy it might be!

Date:

Astronomy

Sep. 30, 2013 Rise Set
Actual Time 8:00 AM CEST 7:47 PM CEST
Civil Twilight 7:32 AM CEST 8:15 PM CEST
Nautical Twilight 6:58 AM CEST 8:48 PM CEST
Astronomical Twilight 6:24 AM CEST 9:22 PM CEST
Moon 3:16 AM CEST (9/30) 5:15 PM CEST (9/30)
Length of Visible Light 12h 43m
Length of Day
11h 46m
Waning Crescent, 21% of the Moon is Illuminated
Sep 30
Waning Crescent
Oct 5
New
Oct 12
First Quarter
Oct 19
Full
Oct 27
Last Quarter

Hourly Weather History & Observations

Time (CEST) Temp. Dew Point Humidity Pressure Visibility Wind Dir Wind Speed Gust Speed Precip Events Conditions
12:00 AM 62.6 °F 59.0 °F 88% 29.77 in 6.2 mi SSW 5.8 mph - N/A   Unknown
1:00 AM 62.6 °F 59.0 °F 88% 29.74 in 6.2 mi South 4.6 mph - N/A   Unknown
2:00 AM 60.8 °F 57.2 °F 88% 29.74 in 6.2 mi South 3.5 mph - N/A   Unknown
3:00 AM 60.8 °F 57.2 °F 88% 29.74 in 6.2 mi South 2.3 mph - N/A   Unknown
4:00 AM 59.0 °F 57.2 °F 94% 29.71 in 6.2 mi Calm Calm - N/A   Unknown
5:00 AM 59.0 °F 57.2 °F 94% 29.68 in 6.2 mi ESE 4.6 mph - N/A   Unknown
6:00 AM 59.0 °F 57.2 °F 94% 29.68 in 6.2 mi Calm Calm - N/A   Unknown
7:00 AM 59.0 °F 57.2 °F 94% 29.65 in - Variable 1.2 mph - N/A   Clear
7:54 AM 59.0 °F 57.2 °F 94% 29.68 in 4.3 mi Variable 2.3 mph - N/A Rain Light Rain
9:00 AM 60.8 °F 59.0 °F 94% 29.65 in - East 3.5 mph - N/A   Clear
10:00 AM 62.6 °F 60.8 °F 94% 29.68 in - Variable 3.5 mph - N/A   Clear
10:54 AM 68.0 °F 62.6 °F 83% 29.68 in - Variable 1.2 mph - N/A   Clear
12:00 PM 71.6 °F 62.6 °F 73% 29.71 in - South 3.5 mph - N/A   Clear
1:00 PM 77.0 °F 62.6 °F 61% 29.71 in - WSW 6.9 mph - N/A   Clear
2:00 PM 77.0 °F 60.8 °F 57% 29.71 in 6.2 mi West 12.7 mph - N/A   Mostly Cloudy
3:00 PM 75.2 °F 59.0 °F 57% 29.71 in 6.2 mi WNW 9.2 mph - N/A   Mostly Cloudy
3:52 PM 75.2 °F 60.8 °F 61% 29.74 in 6.2 mi WNW 8.1 mph - N/A   Mostly Cloudy
5:00 PM 75.2 °F 60.8 °F 61% 29.74 in - WNW 8.1 mph - N/A   Clear
6:00 PM 75.2 °F 59.0 °F 57% 29.74 in 6.2 mi WNW 4.6 mph - N/A   Unknown
7:00 PM 73.4 °F 60.8 °F 65% 29.74 in 6.2 mi West 3.5 mph - N/A   Unknown
8:00 PM 69.8 °F 60.8 °F 73% 29.74 in 6.2 mi NW 2.3 mph - N/A   Unknown
9:00 PM 68.0 °F 60.8 °F 78% 29.74 in 6.2 mi Calm Calm - N/A   Unknown
10:00 PM 64.4 °F 60.8 °F 88% 29.77 in 6.2 mi Calm Calm - N/A   Unknown
11:00 PM 62.6 °F 60.8 °F 94% 29.77 in 6.2 mi Calm Calm - N/A   Unknown